Location: Acequia del Cap
(41.7000°N, 0.6167°E)
Time: 01:30:44
(UTC+00:00)

ERBS - Pass Details

Date: 07 August 2020
Orbit: 412 x 420 km, 57.0° (Epoch: 22 September)

Event Time Altitude Azimuth Distance (km) Brightness Sun altitude
Rises 02:59:02 0° 313° (NW) 2,352 6.0 -19.2°
Reaches altitude 10° 03:01:07 10° 311° (NW) 1,486 5.0 -19.0°
Maximum altitude 03:04:25 71° 227° (SW) 439 2.0 -18.5°
Drops below altitude 10° 03:07:42 10° 143° (SE) 1,477 4.9 -18.1°
Sets 03:09:47 0° 141° (SE) 2,336 6.0 -17.8°
